This is the latest recevied weather packets stored in our database for station/object EA3KZ-1. If no packets are shown the sender has not sent any weather packets the latest 10 day(s).
| Time | Temp. | Humidity | Pressure | Rain* | Wind** | Luminosity | Snow |
|---|---|---|---|---|---|---|---|
| 1787611563 | 23.33° C | 72% | 1008.3 hPa | 0 mm | - | - | - |
| 1787610961 | 23.89° C | 71% | 1008.1 hPa | 0 mm | - | - | - |
| 1787610358 | 24.44° C | 70% | 1008.1 hPa | 0 mm | - | - | - |
| 1787609756 | 24.44° C | 71% | 1007.9 hPa | 0 mm | - | - | - |
| 1787609153 | 24.44° C | 70% | 1007.9 hPa | 0 mm | - | - | - |
| 1787608550 | 25° C | 68% | 1008 hPa | 0 mm | - | - | - |
| 1787607948 | 25° C | 67% | 1007.9 hPa | 0 mm | - | - | - |
| 1787607345 | 25° C | 66% | 1007.9 hPa | 0 mm | - | - | - |
| 1787606742 | 25° C | 65% | 1008 hPa | 0 mm | - | - | - |
| 1787606140 | 25° C | 63% | 1008 hPa | 0 mm | - | - | - |
| 1787605537 | 24.44° C | 61% | 1008 hPa | 0 mm | - | - | - |
| 1787604935 | 23.89° C | 60% | 1008.1 hPa | 0 mm | - | - | - |
| 1787604332 | 23.33° C | 59% | 1008.2 hPa | 0 mm | - | - | - |
| 1787603730 | 23.33° C | 58% | 1008.2 hPa | 0 mm | - | - | - |
| 1787603127 | 23.33° C | 58% | 1008 hPa | 0 mm | - | - | - |
| 1787602524 | 23.33° C | 59% | 1007.9 hPa | 0 mm | - | - | - |
| 1787601922 | 22.22° C | 64% | 1008.1 hPa | 0 mm | - | - | - |
| 1787601319 | 22.22° C | 63% | 1008.1 hPa | 0 mm | - | - | - |
| 1787600717 | 22.78° C | 63% | 1007.9 hPa | 0 mm | - | - | - |
| 1787600174 | 22.78° C | 63% | 1007.8 hPa | 0 mm | - | - | - |
| 1787599572 | 22.78° C | 62% | 1007.8 hPa | 0 mm | - | - | - |
| 1787598969 | 22.78° C | 60% | 1007.5 hPa | 0 mm | - | - | - |
| 1787598367 | 22.78° C | 61% | 1007.8 hPa | 0 mm | - | - | - |
| 1787597764 | 23.33° C | 64% | 1007.6 hPa | 0 mm | - | - | - |
| 1787597161 | 23.33° C | 64% | 1007.5 hPa | 0 mm | - | - | - |
* Rain latest hour (hover to see other rain measurements)
** Current wind speed in m/s (hover to see current wind gust speed)